• Join FlightAware (Why Join?)
  • Login
  • US Flag 
01:46PM EST


 

Airport Tracker/Info


-or-


 

Live Flight TrackerFlight Track Log ✈ AWE3794 ✈ 09-Apr-2013 ✈ KPHL - KCLE

Flight Track Log - Related Links

Times and Time Zones

All times are in EDT time to prevent confusion due to time zone crossing. See the AWE3794 flight status page for this flight to view local times or setup timezone preferences in your user account.

Time Position Orientation Groundspeed Altitude Reporting Facility
EDT Latitude Longitude Course Direction KTS MPH feet Rate Location/Type
07:36AM 39.8597 -75.2817 North 161 185 1,000  Level FAA TRACON SMA TRACON (SMA)
07:37AM 39.8547 -75.2997 250° West 156 180 1,700 1,800 Climbing FAA TRACON SMA TRACON (SMA)
07:37AM 39.8494 -75.3178 249° West 176 203 2,200 1,650 Climbing FAA TRACON SMA TRACON (SMA)
07:37AM 39.8439 -75.3367 249° West 182 209 2,800 2,100 Climbing FAA TRACON SMA TRACON (SMA)
07:38AM 39.8386 -75.3611 254° West 184 212 3,600 2,400 Climbing FAA TRACON SMA TRACON (SMA)
07:38AM 39.8372 -75.3814 265° West 191 220 4,400 1,800 Climbing FAA TRACON SMA TRACON (SMA)
07:38AM 39.8478 -75.3981 310° West 209 241 4,800 1,024 Climbing FAA TRACON SMA TRACON (SMA)
07:39AM 40.0658 -75.4157 323° Northwest  Level FlightAware Approximate
07:39AM 39.8694 -75.4108 336° Northwest 229 264 5,100  Level FAA TRACON SMA TRACON (SMA)
07:39AM 39.8903 -75.4194 342° North 249 287 5,500 1,463 Climbing FAA TRACON SMA TRACON (SMA)
07:39AM 39.9114 -75.4283 342° North 258 297 6,100 1,650 Climbing FAA TRACON SMA TRACON (SMA)
07:40AM 40.1336 -75.4835 323° Northwest  Level FlightAware Approximate
07:40AM 39.9342 -75.4389 340° North 265 305 6,600  Level FAA TRACON SMA TRACON (SMA)
07:40AM 39.9597 -75.4511 340° North 266 306 7,600 2,250 Climbing FAA TRACON SMA TRACON (SMA)
07:40AM 39.9808 -75.4608 341° North 263 303 8,100 1,800 Climbing FAA TRACON SMA TRACON (SMA)
07:41AM 40.2018 -75.5500 North  Level FlightAware Approximate
07:41AM 40.0083 -75.4728 342° North 268 308 8,800  Level FAA TRACON SMA TRACON (SMA)
07:41AM 40.0322 -75.4769 352° North 290 334 9,200 1,800 Climbing FAA TRACON SMA TRACON (SMA)
07:41AM 40.0628 -75.4686 12° North 294 338 10,000 2,100 Climbing FAA TRACON SMA TRACON (SMA)
07:42AM 40.0883 -75.4642 North 293 337 10,600 1,650 Climbing FAA TRACON SMA TRACON (SMA)
07:42AM 40.1106 -75.4717 346° North 290 334 11,100 1,200 Climbing FAA TRACON SMA TRACON (SMA)
07:42AM 40.1325 -75.4872 332° Northwest 281 323 11,400 900 Climbing FAA TRACON SMA TRACON (SMA)
07:43AM 40.1583 -75.5100 326° Northwest 293 337 11,700 1,200 Climbing FAA TRACON SMA TRACON (SMA)
07:43AM 40.1797 -75.5269 329° Northwest 294 338 12,200 1,350 Climbing FAA TRACON SMA TRACON (SMA)
07:43AM 40.2008 -75.5428 330° Northwest 295 339 12,600 1,800 Climbing FAA TRACON SMA TRACON (SMA)
07:44AM 40.2283 -75.5664 327° Northwest 295 339 13,400 1,650 Climbing FAA TRACON SMA TRACON (SMA)
07:44AM 40.2453 -75.5908 312° West 302 348 13,700 1,350 Climbing FAA TRACON SMA TRACON (SMA)
07:44AM 40.2625 -75.6167 311° West 306 352 14,300 1,950 Climbing FAA TRACON SMA TRACON (SMA)
07:45AM 40.2831 -75.6492 310° West 302 348 15,000 1,500 Climbing FAA TRACON SMA TRACON (SMA)
07:45AM 40.3000 -75.6750 311° West 304 350 15,300 1,200 Climbing FAA TRACON SMA TRACON (SMA)
07:45AM 40.3169 -75.7008 311° West 307 353 15,800 2,100 Climbing FAA TRACON SMA TRACON (SMA)
07:46AM 40.3397 -75.7342 312° West 310 357 16,700 2,100 Climbing FAA TRACON SMA TRACON (SMA)
07:46AM 40.3572 -75.7600 312° West 309 356 17,200 1,050 Climbing FAA TRACON SMA TRACON (SMA)
07:46AM 40.3742 -75.7867 310° West 310 357 17,400 200 Climbing FAA TRACON SMA TRACON (SMA)
07:47AM 40.3742 -75.7867 143° Southeast 310 357 17,400 1,175 Level FAA TRACON SMA TRACON (SMA)
07:48AM 40.4442 -75.9417 301° West 328 377 19,300 1,475 Climbing New York Center
07:49AM 40.4681 -76.0636 284° West 323 372 20,300 1,082 Climbing New York Center
07:50AM 40.4875 -76.1850 282° West 333 383 21,500 1,377 Climbing New York Center
07:51AM 40.5067 -76.3067 282° West 344 396 23,100 1,300 Climbing New York Center
07:52AM 40.5239 -76.4283 281° West 344 396 24,100 1,160 Climbing New York Center
07:53AM 40.5433 -76.5472 282° West 339 390 25,400 1,119 Climbing New York Center
07:54AM 40.5706 -76.6672 287° West 339 390 26,300 1,050 Climbing New York Center
07:55AM 40.5975 -76.7953 286° West 339 390 27,500 850 Climbing New York Center
07:56AM 40.6281 -76.8936 292° West 339 390 28,000 252 Climbing New York Center
07:57AM 40.6611 -77.0169 289° West 339 390 28,000  Level New York Center
07:58AM 40.6978 -77.1489 290° West 344 396 28,000  Level New York Center
07:59AM 40.7289 -77.2697 289° West 349 402 28,000  Level New York Center
08:00AM 40.7619 -77.3881 290° West 349 402 28,000  Level New York Center
08:02AM 40.8117 -77.5900 288° West 361 415 28,000  Level Cleveland Center
08:03AM 40.8419 -77.7067 289° West 356 410 28,000  Level Cleveland Center
08:04AM 40.8675 -77.8153 287° West 351 404 28,000  Level Cleveland Center
08:05AM 40.8994 -77.9322 290° West 346 398 28,000  Level Cleveland Center
08:06AM 40.9250 -78.0519 286° West 341 392 28,000  Level Cleveland Center
08:07AM 40.9444 -78.1722 282° West 336 387 28,000  Level Cleveland Center
08:08AM 40.9703 -78.3117 284° West 336 387 28,000  Level Cleveland Center
08:09AM 40.9914 -78.4319 283° West 336 387 28,000  Level Cleveland Center
08:10AM 41.0103 -78.5550 282° West 341 392 28,000  Level Cleveland Center
08:11AM 41.0311 -78.6811 282° West 341 392 28,000  Level Cleveland Center
08:12AM 41.0497 -78.8044 281° West 346 398 28,000  Level Cleveland Center
08:13AM 41.0706 -78.9306 282° West 352 405 28,000  Level Cleveland Center
08:14AM 41.0911 -79.0569 282° West 352 405 28,000  Level Cleveland Center
08:15AM 41.1092 -79.1806 281° West 352 405 28,000  Level Cleveland Center
08:16AM 41.1294 -79.3067 282° West 352 405 28,000  Level Cleveland Center
08:17AM 41.1475 -79.4306 281° West 352 405 28,000 -50 Level Cleveland Center
08:18AM 41.1675 -79.5569 282° West 352 405 27,900 -545 Descending Cleveland Center
08:19AM 41.1853 -79.6836 281° West 352 405 26,900 -992 Descending Cleveland Center
08:20AM 41.2047 -79.8075 282° West 352 405 25,900 -1,008 Descending Cleveland Center
08:21AM 41.2203 -79.9289 280° West 352 405 24,900 -958 Descending Cleveland Center
08:22AM 41.2417 -80.0364 285° West 346 398 24,000 -450 Descending Cleveland Center
08:23AM 41.2589 -80.1550 281° West 341 392 24,000 -446 Level Cleveland Center
08:24AM 41.2736 -80.2708 280° West 334 384 23,100 -1,250 Descending Cleveland Center
08:25AM 41.2928 -80.3953 282° West 339 390 21,500 -1,550 Descending Cleveland Center
08:26AM 41.3094 -80.5222 280° West 331 381 20,000 -1,488 Descending Cleveland Center
08:27AM 41.3264 -80.6356 281° West 326 375 18,500 -1,613 Descending Cleveland Center
08:28AM 41.3575 -80.7464 291° West 319 367 16,800 -1,765 Descending Cleveland Center
08:29AM 41.3989 -80.8517 298° West 319 367 15,000 -1,846 Descending Cleveland Center
08:29AM 41.4092 -80.8850 292° West 317 365 14,400 -1,889 Descending Cleveland Center
08:30AM 41.4361 -80.9458 301° West 317 365 13,300 -1,765 Descending Cleveland Center
08:31AM 41.4753 -81.0569 295° West 319 367 11,400 -1,623 Descending Cleveland Center
08:32AM 41.5083 -81.1489 296° West 299 344 10,000 -689 Descending Cleveland Center
08:33AM 41.5014 -81.2597 265° West 270 311 10,000 -435 Level Cleveland Center
08:34AM 41.4925 -81.3511 263° West 269 310 9,100 -983 Descending Cleveland Center
08:35AM 41.4794 -81.4394 259° West 254 292 8,100 -559 Descending Cleveland Center
08:36AM 41.4683 -81.5308 261° West 255 293 8,000 -50 Descending Cleveland Center
08:37AM 41.4528 -81.6303 258° West 257 296 8,000 -98 Level Cleveland Center
08:38AM 41.4083 -81.7044 231° Southwest 254 292 7,800 -197 Descending Cleveland Center
08:38AM 41.4083 -81.7044 231° Southwest 266 306 7,800 -800 Level Cleveland Center
08:39AM 41.3617 -81.7728 228° Southwest 259 298 7,000 -898 Descending Cleveland Center
08:40AM 41.3089 -81.8519 228° Southwest 256 295 5,900 -1,082 Descending Cleveland Center
08:41AM 41.2683 -81.9175 231° Southwest 251 289 4,800 -1,388 Descending Cleveland Center
08:42AM 41.2278 -82.0022 238° Southwest 254 292 3,100 -850 Descending Cleveland Center
08:43AM 41.2794 -82.0419 330° Northwest 212 244 3,000 -98 Descending Cleveland Center